Regional Weather Roundup
Issued by NWS Sterling, VA

Home | Current Version | Previous Version | Text Only | Print | Product List | Glossary Off
Versions: 1 2 3 4 5 6 7 8 9 10 11 12 13 14 15 16 17 18 19 20 21 22 23 24 25 26 27 28 29 30 31 32 33 34 35 36 37 38 39 40 41 42 43 44 45 46 47 48 49 50

000
ASUS41 KLWX 312110
RWRLWX

REGIONAL WEATHER ROUNDUP
NATIONAL WEATHER SERVICE BALTIMORE MD/WASHINGTON DC
500 PM EDT FRI JUL 31 2015

Note: "FAIR" indicates few or no clouds below 12,000 feet
with no significant weather and/or obstructions to visibility.
 TC=TEMPERATURE CELSIUS

 * =Non NWS site. Station does not report precipitation (e.g. rain,
    snow, etc.), thunder, or fog.

DCZ001-MDZ009-015-VAZ040>042-051-053>054-312200-
WASHINGTON METRO

CITY           SKY/WX    TMP DP  RH WIND       PRES   REMARKS
WASHINGTON NAT MOSUNNY   90  58  33 N10       29.88F
DULLES         MOSUNNY   86  58  38 W8        29.89F
ANDREWS AFB    SUNNY     89  51  26 W12G18    29.87F
FT BELVOIR     SUNNY     89  60  37 W9        29.88F
QUANTICO       MOSUNNY   87  60  39 W3        29.85F
COLLEGE PARK*  SUNNY     88  54  31 NW6       29.87S
LEESBURG*      SUNNY     88  61  40 W12G17    29.90F
MANASSAS*      MOSUNNY   88  61  40 W7        29.89F
GAITHERSBURG*  SUNNY     86  59  39 W9        29.93F

$$

MDZ006>007-011-014-312200-
BALTIMORE METRO

CITY           SKY/WX    TMP DP  RH WIND       PRES   REMARKS
BWI AIRPORT    MOSUNNY   89  56  32 W9        29.86F
MD SCIENCE CTR   N/A     89  55  31 MISG      29.86F
MARTIN STATE   MOSUNNY   90  63  40 W12       29.87F HX  90
ANNAPOLIS      SUNNY     88  57  34 NW8       29.86F
FORT MEADE*    SUNNY     82  59  44 W9        29.90S

$$

MDZ012-015-019>023-312200-
MARYLAND EASTERN SHORE

CITY           SKY/WX    TMP DP  RH WIND       PRES   REMARKS
OCEAN CITY     SUNNY     85  60  42 E7        29.85F
SALISBURY      SUNNY     87  60  40 W10       29.86S
BAY BRIDGE AP*   N/A     88  54  31 CALM      29.86F
CAMBRIDGE*     SUNNY     88  55  33 NW3       29.86F
EASTON*        MOSUNNY   90  61  37 N6        29.90F

$$

MDZ017>025-312200-
SOUTHERN MARYLAND

CITY           SKY/WX    TMP DP  RH WIND       PRES   REMARKS
PATUXENT RIVER MOSUNNY   84  61  45 W5        29.87F
ST INIGOES     SUNNY     85  61  44 W9        29.87S
LEONARDTOWN*   PTSUNNY   86  57  37 W6        29.89S

$$

MDZ003>005-312200-
NORTH CENTRAL MARYLAND

CITY           SKY/WX    TMP DP  RH WIND       PRES   REMARKS
FREDERICK*     MOSUNNY   91  63  38 W9        29.91F HX  92
HAGERSTOWN APT MOSUNNY   87  54  32 SW7       29.89F
WESTMINSTER*   SUNNY     88  55  33 W9        29.90F

$$

MDZ501>502-312200-
WESTERN MARYLAND

CITY           SKY/WX    TMP DP  RH WIND       PRES   REMARKS
OAKLAND*       PTSUNNY   73  63  68 W12       30.04F
CUMBERLAND*    SUNNY     88  55  33 SW10      29.95F

$$

VAZ025>031-312200-
SHENANDOAH VALLEY

CITY           SKY/WX    TMP DP  RH WIND       PRES   REMARKS
WINCHESTER*    MOSUNNY   90  55  31 W10       29.91F
FRONT ROYAL*   FAIR      84  61  45 W6        29.91F
LURAY*         FAIR      88  57  35 W6        29.93S
NEW MARKET*    FAIR      85  59  40 CALM      29.91F
STAUNTON*      SUNNY     88  55  32 CALM      29.96F
WAYNESBORO*    FAIR      83  59  44 SW5       29.96F

$$

WVZ021-048>050-054>055-312200-
EASTERN WEST VIRGINIA PANHANDLE

CITY           SKY/WX    TMP DP  RH WIND       PRES   REMARKS
MARTINSBURG    SUNNY     87  56  34 W12       29.90F
PETERSBURG*    PTSUNNY  N/A N/A N/A W9        29.94F

$$

VAZ036>039-050-312200-
CENTRAL FOOTHILLS

CITY           SKY/WX    TMP DP  RH WIND       PRES   REMARKS
CHARLOTTESVILL SUNNY     86  59  39 VRB3      29.91F
CULPEPER*      SUNNY     85  62  44 CALM      29.91S
ORANGE*        SUNNY     88  59  37 CALM      29.92F
GORDONSVILLE*  FAIR      86  61  42 W3        29.91F
WARRENTON*     FAIR      89  63  41 W5        29.90F

$$

VAZ055>057-312200-
NORTH AND CENTRAL PIEDMONT

CITY           SKY/WX    TMP DP  RH WIND       PRES   REMARKS
FREDERICKSBRG* SUNNY     89  60  36 NW6       29.88S
STAFFORD*      MOSUNNY   86  59  39 W7        29.93F

$$

NCZ024-NYZ072-PAZ021-071-VAZ022-071-312200-
OTHER REGIONAL OBSERVATIONS

CITY           SKY/WX    TMP DP  RH WIND       PRES   REMARKS
NEW YORK CITY  SUNNY     88  52  29 VRB6      29.84F
PHILADELPHIA   MOSUNNY   90  54  29 W12       29.84F
PITTSBURGH     PTSUNNY   82  58  43 W8        29.92F
ROANOKE        MOSUNNY   87  54  32 N10       29.97F
RICHMOND       MOSUNNY   90  58  33 VRB5      29.88F
RALEIGH        MOSUNNY   90  64  42 VRB3      29.90F HX  91

$$

ANZ530>537-312200-
MARINE OBSERVATIONS

STATION/POSITION TIME  TEMP    WIND        PRES
                       AIR SEA DIR/SP/G
                 (UTC) (F)     (DEG/KT/KT) (MB)
THOMAS PT LIGHT  NOT AVBL
BALT KEY BRIDGE  2000   86     270/ 10/ 11 1011.3F
COVE POINT       2000   84      20/  5/  9 1012.2F
LEWISETTA        2000   85 83  300/  7/  8 1011.5F
SOLOMONS ISLAND  2000      83                N/A
PINEY POINT      2000          320/ 10/ 11   N/A

$$




USA.gov is the U.S. government's official web portal to all federal, state and local government web resources and services.